Content
SEND FEEDBACK

Daily
Averages
Monthly
Summary
United States of America

AUBURN, NEW YORK


Home > North America > United States > New York
Elevation: 22 meters     Latitude: 42 55N     Longitude: 076 32W

WEATHER
 
SELECT A DAY
Number of Records: 224,033;   Date Range: 1/1/95 - 9/3/14
 
SHARE

PRINT THIS DATA

[ ← Previous Day ]
WEATHER ALMANAC - 5 FEBRUARY, 2013
[ Next Day → ]
[ °F ]   °C
Weather ElementAverageHighLow
Temperature-8.4 °C-4.4 °C (2:54 pm)-13.9 °C (7:54 am)
Dewpoint-12.9 °C-10.6 °C (12:54 am)-15.6 °C (6:54 am)
Humidity71.4 %87 % (7:54 am)51 % (2:54 pm)
Barometer1013.5 hPa1016.3 hPa (8:54 am)1011.5 hPa (4:54 pm)
Wind Speed4.5 km/h11.1 km/h (10:54 am)
Weather ElementAverage
Visibility12.9 km
Wind DirectionENE (53.6 °)

Weather ElementTotal
Precipitation---
Heating Degree Days27.5 (Base 18.3)
Averaged from 33 records on 5 February, 2013
WEATHER CONDITIONS BREAKOUT
WIND DIRECTION BREAKOUT
WEATHER BY HOUR - 5 FEBRUARY, 2013
[ °F ]   °C
Local TimeTemperatureDewpointHumidityBarometerVisibilityWind DirectionWind SpeedGust SpeedPrecipitationEventsConditions
12:54 AM-8.3 °C-10.6 °C84 %1013.9 hPa4.8 kmCalm0 mmSnowLight Snow
1:07 AM-8 °C-11 °C79 %1013.2 hPa6.4 kmCalm0 mmSnowLight Snow
1:54 AM-8.3 °C-10.6 °C84 %1013.9 hPa6.4 kmCalm0 mmSnowLight Snow
2:05 AM-8 °C-11 °C79 %1013.5 hPa4.8 kmNorth (10°)5.6 km/h0 mmSnowLight Snow
2:13 AM-8 °C-11 °C79 %1013.5 hPa4 kmNorth (360°)5.6 km/h0 mmSnowLight Snow
2:22 AM-8 °C-11 °C79 %1013.9 hPa4.8 kmNorth (360°)5.6 km/h0 mmSnowLight Snow
2:32 AM-9 °C-11 °C86 %1013.9 hPa4 kmNE (40°)9.3 km/h0 mmSnowLight Snow
2:42 AM-9 °C-12 °C79 %1013.5 hPa6.4 kmNNE (30°)7.4 km/h0 mmSnowLight Snow
2:54 AM-8.9 °C-11.7 °C81 %1013.9 hPa8 kmNE (50°)5.6 km/h0 mmSnowLight Snow
3:54 AM-10 °C-12.8 °C80 %1014.2 hPa12.9 kmNE (50°)9.3 km/h0 mmSnowLight Snow
4:54 AM-10.6 °C-14.4 °C74 %1014.6 hPa14.5 kmCalm0 mmSnowLight Snow
5:06 AM-12 °C-15 °C79 %1014.2 hPa14.5 kmCalm0 mmSnowLight Snow
5:26 AM-12 °C-14 °C85 %1014.2 hPa14.5 kmCalm0 mmSnowLight Snow
5:54 AM-12.2 °C-14.4 °C84 %1014.6 hPa14.5 kmNE (50°)5.6 km/h0 mmMostly Cloudy
5:57 AM-12 °C-14 °C85 %1014.2 hPa14.5 kmNE (50°)5.6 km/hOvercast
6:54 AM-13.3 °C-15.6 °C83 %1015.6 hPa16.1 kmCalmOvercast
7:54 AM-13.9 °C-15.6 °C87 %1015.9 hPa16.1 kmEast (90°)7.4 km/hMostly Cloudy
8:54 AM-11.1 °C-14.4 °C77 %1016.3 hPa16.1 kmEast (80°)5.6 km/hMostly Cloudy
9:54 AM-9.4 °C-15 °C64 %1015.9 hPa16.1 kmEast (90°)9.3 km/hMostly Cloudy
10:54 AM-7.2 °C-15.6 °C52 %1015.6 hPa16.1 kmENE (60°)11.1 km/hMostly Cloudy
11:54 AM-6.7 °C-14.4 °C55 %1014.9 hPa16.1 kmENE (70°)7.4 km/hMostly Cloudy
12:54 PM-5.6 °C-13.3 °C55 %1013.5 hPa16.1 kmEast (100°)11.1 km/hMostly Cloudy
1:54 PM-5 °C-13.3 °C53 %1012.5 hPa16.1 kmENE (70°)9.3 km/hMostly Cloudy
2:54 PM-4.4 °C-13.3 °C51 %1012.9 hPa16.1 kmENE (60°)7.4 km/hMostly Cloudy
3:54 PM-5 °C-12.8 °C55 %1011.9 hPa16.1 kmENE (70°)11.1 km/hOvercast
4:54 PM-5 °C-12.2 °C58 %1011.5 hPa16.1 kmEast (80°)9.3 km/hOvercast
5:54 PM-5.6 °C-12.8 °C58 %1011.5 hPa16.1 kmCalmOvercast
6:54 PM-6.1 °C-12.8 °C60 %1011.9 hPa16.1 kmCalmMostly Cloudy
7:54 PM-6.1 °C-12.8 °C60 %1011.9 hPa16.1 kmCalmMostly Cloudy
8:54 PM-7.2 °C-12.8 °C65 %1011.9 hPa16.1 kmCalmOvercast
9:54 PM-7.2 °C-12.2 °C68 %1012.2 hPa16.1 kmCalmOvercast
10:54 PM-7.8 °C-12.2 °C71 %1011.9 hPa16.1 kmCalmOvercast
11:54 PM-7.2 °C-12.2 °C68 %1011.9 hPa16.1 kmCalmOvercast
Hourly data recorded from KSYR, located 0 kilometers away from Auburn, New York







STORIES FROM OUR PARTNERS